EW3861 Weather Reports


time (UTC)temp
F
wind
direction
speed
knots
gust
knots
rain 1hr
in
rain 24hr
in
rain mn
in
humidity
%
barometer
mb
20260905170041 69 34 0.0 0.0 0.00 0.00 0.00 79 1008.9
20260905164539 70 321 0.0 0.0 0.00 0.00 0.00 78 1008.8
20260905163039 69 288 0.0 0.0 0.00 0.00 0.00 78 1008.6
20260905161551 69 54 0.0 0.0 0.00 0.00 0.00 80 1008.6
20260905160041 69 18 0.0 0.0 0.00 0.00 0.00 79 1008.6
20260905154540 69 325 0.0 0.0 0.00 0.00 0.00 79 1008.5
20260905153035 70 171 0.0 0.0 0.00 0.00 0.00 79 1008.4
20260905151534 69 86 0.0 0.0 0.00 0.00 0.00 79 1008.3
20260905150034 69 63 0.0 0.0 0.00 0.00 0.00 79 1008.3
20260905144529 68 59 0.0 0.0 0.00 0.00 0.00 82 1008.3
20260905143029 67 68 0.0 0.0 0.00 0.00 0.00 84 1008.2
20260905141530 67 103 0.0 0.0 0.00 0.00 0.00 86 1008.3
20260905140021 66 115 0.0 0.0 0.00 0.00 0.00 88 1008.2
20260905134520 66 105 0.0 0.0 0.00 0.00 0.00 89 1008.5
20260905133015 64 169 0.0 0.0 0.00 0.00 0.00 93 1008.5
20260905131514 63 101 0.0 0.0 0.00 0.00 0.00 96 1008.3
20260905130009 62 96 0.0 0.0 0.00 0.00 0.00 97 1008.1
20260905124507 62 98 0.0 0.0 0.00 0.00 0.00 97 1008.1
20260905123014 61 101 0.0 0.0 0.00 0.00 0.00 97 1007.9
20260905121504 60 73 0.0 0.0 0.00 0.00 0.00 97 1007.9
20260905120005 59 73 0.0 0.0 0.00 0.00 0.00 97 1007.8
20260905114503 58 73 0.0 0.0 0.00 0.00 0.00 96 1007.6
20260905113003 58 73 0.0 0.0 0.00 0.00 0.00 96 1007.6
20260905111501 57 73 0.0 0.0 0.00 0.00 0.00 96 1007.5
20260905110001 57 73 0.0 0.0 0.00 0.00 0.00 95 1007.3
20260905104614 57 73 0.0 0.0 0.00 0.00 0.00 95 1007.2
20260905103100 57 73 0.0 0.0 0.00 0.00 0.00 95 1007.2
20260905101602 57 73 0.0 0.0 0.00 0.00 0.00 95 1007.1
20260905100101 57 73 0.0 0.0 0.00 0.00 0.00 95 1007.2
20260905094557 57 73 0.0 0.0 0.00 0.00 0.00 95 1007.1
20260905093057 58 73 0.0 0.0 0.00 0.00 0.00 95 1007.1
20260905091619 58 73 0.0 0.0 0.00 0.00 0.00 95 1007.1
20260905090054 58 73 0.0 0.0 0.00 0.00 0.00 95 1007.1
20260905084610 58 73 0.0 0.0 0.00 0.00 0.00 95 1007.0
20260905083052 58 73 0.0 0.0 0.00 0.00 0.00 95 1006.9
20260905081552 58 73 0.0 0.0 0.00 0.00 0.00 94 1006.9
20260905080052 58 73 0.0 0.0 0.00 0.00 0.00 94 1007.0
20260905074558 58 73 0.0 0.0 0.00 0.00 0.00 94 1007.0
20260905073049 58 73 0.0 0.0 0.00 0.00 0.00 94 1007.0
20260905071549 58 73 0.0 0.0 0.00 0.00 0.00 94 1007.0
20260905070105 59 73 0.0 0.0 0.00 0.00 0.00 93 1007.1
20260905064547 59 73 0.0 0.0 0.00 0.00 0.00 93 1007.4
20260905063044 59 73 0.0 0.0 0.00 0.00 0.00 93 1007.6
20260905061542 59 73 0.0 0.0 0.00 0.00 0.00 93 1007.5
20260905060041 59 73 0.0 0.0 0.00 0.00 0.00 93 1007.7
20260905054549 60 73 0.0 0.0 0.00 0.00 0.00 92 1007.7
20260905053043 60 73 0.0 0.0 0.00 0.00 0.00 91 1007.7
20260905051542 60 73 0.0 0.0 0.00 0.00 0.00 91 1007.7
20260905050043 61 73 0.0 0.0 0.00 0.00 0.00 91 1007.9
20260905044533 61 73 0.0 0.0 0.00 0.00 0.00 91 1007.7
20260905043033 61 73 0.0 0.0 0.00 0.00 0.00 91 1007.7
20260905041530 62 73 0.0 0.0 0.00 0.00 0.00 91 1007.8
20260905040028 62 73 0.0 0.0 0.00 0.00 0.00 91 1007.8
20260905034536 62 73 0.0 0.0 0.00 0.00 0.00 90 1007.7
20260905033028 63 73 0.0 0.0 0.00 0.00 0.00 89 1007.6
20260905031527 63 73 0.0 0.0 0.00 0.00 0.00 89 1007.6
20260905030033 63 73 0.0 0.0 0.00 0.00 0.00 89 1007.6
20260905024526 64 73 0.0 0.0 0.00 0.00 0.00 88 1007.6
20260905023032 64 73 0.0 0.0 0.00 0.00 0.00 88 1007.6
20260905021524 65 73 0.0 0.0 0.00 0.00 0.00 87 1007.6
20260905020027 66 73 0.0 0.0 0.00 0.00 0.00 87 1007.8
20260905014523 66 73 0.0 0.0 0.00 0.00 0.00 85 1008.0
20260905013025 67 73 0.0 0.0 0.00 0.00 0.00 84 1008.1
20260905011522 68 73 0.0 0.0 0.00 0.00 0.00 83 1008.1
20260905010023 68 73 0.0 0.0 0.00 0.00 0.00 82 1008.1
20260905004521 69 73 0.0 0.0 0.00 0.00 0.00 81 1008.0
20260905003021 70 73 0.0 0.0 0.00 0.00 0.00 80 1007.9
20260905001521 71 73 0.0 0.0 0.00 0.00 0.00 77 1007.8
20260905000023 72 73 0.0 0.0 0.00 0.00 0.00 76 1007.6
20260904234534 73 73 0.0 0.0 0.00 0.00 0.00 73 1007.5
20260904233020 74 73 0.0 0.0 0.00 0.00 0.00 71 1007.3
20260904231519 75 73 0.0 0.0 0.00 0.00 0.00 69 1007.2
20260904230018 76 73 0.0 0.0 0.00 0.00 0.00 68 1007.0
20260904224518 77 73 0.0 0.0 0.00 0.00 0.00 66 1007.0
20260904223017 78 73 0.0 0.0 0.00 0.00 0.00 65 1007.0
20260904221517 79 73 0.0 0.0 0.00 0.00 0.00 62 1006.9
20260904220016 80 86 0.0 0.0 0.00 0.00 0.00 60 1006.8
20260904214515 80 86 0.0 0.0 0.00 0.00 0.00 60 1006.9
20260904213015 81 82 0.0 0.0 0.00 0.00 0.00 57 1006.9
20260904211514 82 82 0.0 0.0 0.00 0.00 0.00 53 1006.8
20260904210015 84 33 0.0 0.0 0.00 0.00 0.00 51 1006.8
20260904204514 84 244 0.0 0.0 0.00 0.00 0.00 48 1006.7
20260904203013 84 194 0.0 0.0 0.00 0.00 0.00 52 1006.9
20260904201512 84 196 0.0 0.0 0.00 0.00 0.00 48 1006.9
20260904200014 84 317 0.0 0.0 0.00 0.00 0.00 50 1006.8
20260904194509 83 93 0.0 0.0 0.00 0.00 0.00 53 1006.7
20260904193010 84 109 0.0 0.0 0.00 0.00 0.00 53 1006.6
20260904191507 84 224 0.0 0.0 0.00 0.00 0.00 53 1006.7
20260904190104 84 190 0.0 0.0 0.00 0.00 0.00 53 1007.0
20260904184501 83 105 0.0 0.0 0.00 0.00 0.00 58 1007.0
20260904183057 81 276 0.0 0.0 0.00 0.00 0.00 61 1007.1
20260904181556 80 96 0.0 0.0 0.00 0.00 0.00 63 1007.1
20260904180057 81 96 0.0 0.0 0.00 0.00 0.00 64 1007.1
20260904174555 81 81 0.0 0.0 0.00 0.00 0.00 61 1007.1
20260904173056 81 184 0.0 0.0 0.00 0.00 0.00 63 1007.2
20260904171558 80 171 0.0 0.0 0.00 0.00 0.00 65 1007.3